先锋 1(VANGUARD 1)

导读 | 星芒AI

VANGUARD 1 是美国发射的第二颗人造卫星,于1958年3月17日成功进入轨道。它是世界上第一颗使用太阳能供电的卫星,重约1.47公斤,呈红色铝制球体。VANGUARD 1 主要用于研究地球大气密度和卫星轨道变化,为后续卫星任务提供了重要数据。尽管其任务已结束,但它仍在轨道上运行,是人类航天史上的重要里程碑。

基本信息
目录编号:
5
目录名称:
VANGUARD 1
国际标识:
1958-002B
轨道中心:
EARTH
卫星名称:
先锋 1
卫星全名:
--
卫星状态:
在轨 (已飞行24698 天)
发射日期:
1958-03-17 UTC
国别 :
美国 (US)
星等 :
--
轨道信息
数据来源 国际轨道数据
星历时间: 2025-10-27T15:16:01+0800
2天前
查看轨道信息
半长轴: 8613.942km
偏心率: 0.1841615
轨道倾角: 34.248°
近地点辐角 168.481°
升交点赤经 313.069°
平近点角 196.461°
近地点: 649.45km
远地点: 3822.164km
周期: 132.606分钟
每日圈数: 10.859251
详细信息
使用方式:
暂无
2D轨道图
3D轨道图
轨道高度分析图
轨道倾角分析图
轨道综合分析图
查看轨道综合分析图